EW9957 Weather Reports


Display with metric or nautical units.
time (UTC)temp
F
wind
direction
speed
MPH
gust
MPH
rain 1hr
in
rain 24hr
in
rain mn
in
humidity
%
barometer
mb
20260506212112 67 32 9.0 17.0 0.00 0.00 0.00 67 1018.0
20260506211532 67 34 13.0 17.0 0.00 0.00 0.00 65 1018.0
20260506211048 67 34 10.0 17.0 0.00 0.00 0.00 65 1018.1
20260506210523 68 36 11.0 17.0 0.00 0.00 0.00 64 1018.1
20260506210024 67 35 8.0 16.0 0.00 0.00 0.00 66 1018.0
20260506205519 68 35 7.0 16.0 0.00 0.00 0.00 65 1018.1
20260506205055 67 34 10.0 17.0 0.00 0.00 0.00 64 1018.2
20260506204537 66 37 13.0 17.0 0.00 0.00 0.00 65 1018.2
20260506204052 68 36 7.0 15.0 0.00 0.00 0.00 63 1018.2
20260506203607 67 34 9.0 15.0 0.00 0.00 0.00 65 1018.2
20260506203524 67 34 9.0 15.0 0.00 0.00 0.00 65 1018.2
20260506203108 68 36 9.0 14.0 0.00 0.00 0.00 63 1018.3
20260506202521 67 34 8.0 21.0 0.00 0.00 0.00 65 1018.3
20260506202038 67 35 10.0 17.0 0.00 0.00 0.00 64 1018.3
20260506201540 66 37 10.0 15.0 0.00 0.00 0.00 65 1018.4
20260506201034 66 35 10.0 16.0 0.00 0.00 0.00 65 1018.4
20260506200548 67 32 9.0 16.0 0.00 0.00 0.00 64 1018.4
20260506200111 67 36 11.0 16.0 0.00 0.00 0.00 64 1018.4
20260506200029 67 36 11.0 16.0 0.00 0.00 0.00 64 1018.4
20260506195524 67 35 10.0 16.0 0.00 0.00 0.00 64 1018.5
20260506195039 66 36 11.0 16.0 0.00 0.00 0.00 63 1018.6
20260506194541 67 34 11.0 16.0 0.00 0.00 0.00 62 1018.6
20260506194015 68 35 10.0 16.0 0.00 0.00 0.00 62 1018.6
20260506193512 68 34 8.0 14.0 0.00 0.00 0.00 61 1018.7
20260506193016 68 34 10.0 14.0 0.00 0.00 0.00 61 1018.7
20260506192553 68 36 8.0 13.0 0.00 0.00 0.00 61 1018.8
20260506192107 69 32 8.0 14.0 0.00 0.00 0.00 60 1018.7
20260506191546 69 35 8.0 14.0 0.00 0.00 0.00 59 1018.7
20260506191021 68 36 9.0 14.0 0.00 0.00 0.00 59 1018.8
20260506190516 68 34 7.0 13.0 0.00 0.00 0.00 59 1018.7
20260506190101 68 36 6.0 13.0 0.00 0.00 0.00 59 1018.8
20260506185513 68 34 6.0 13.0 0.00 0.00 0.00 61 1018.8
20260506185028 67 34 10.0 13.0 0.00 0.00 0.00 60 1019.0
20260506184530 68 38 2.0 10.0 0.00 0.00 0.00 58 1018.9
20260506184045 67 34 6.0 13.0 0.00 0.00 0.00 59 1019.0
20260506183539 68 35 6.0 13.0 0.00 0.00 0.00 58 1019.0
20260506183113 67 37 3.0 12.0 0.00 0.00 0.00 59 1019.1
20260506182607 67 32 3.0 12.0 0.00 0.00 0.00 58 1019.1
20260506182524 67 32 3.0 12.0 0.00 0.00 0.00 58 1019.1
20260506182041 68 36 4.0 10.0 0.00 0.00 0.00 57 1019.1
20260506181605 69 35 4.0 10.0 0.00 0.00 0.00 57 1019.2
20260506181523 69 35 4.0 10.0 0.00 0.00 0.00 57 1019.2
20260506181039 68 32 3.0 12.0 0.00 0.00 0.00 58 1019.3
20260506180555 66 34 8.0 13.0 0.00 0.00 0.00 59 1019.3
20260506180512 66 34 8.0 13.0 0.00 0.00 0.00 59 1019.3
20260506180012 66 34 4.0 13.0 0.00 0.00 0.00 60 1019.3
20260506175528 66 34 7.0 10.0 0.00 0.00 0.00 60 1019.4
20260506175024 65 32 1.0 7.0 0.00 0.00 0.00 62 1019.4
20260506174547 65 36 4.0 10.0 0.00 0.00 0.00 62 1019.5
20260506174102 65 34 4.0 11.0 0.00 0.00 0.00 62 1019.5
20260506173534 65 36 6.0 11.0 0.00 0.00 0.00 62 1019.5
20260506173034 65 36 4.0 12.0 0.00 0.00 0.00 62 1019.5
20260506172549 64 34 8.0 12.0 0.00 0.00 0.00 63 1019.6
20260506172023 64 35 1.0 8.0 0.00 0.00 0.00 64 1019.6
20260506171547 64 34 4.0 8.0 0.00 0.00 0.00 63 1019.7
20260506171041 64 35 3.0 10.0 0.00 0.00 0.00 65 1019.7
20260506170515 63 36 6.0 10.0 0.00 0.00 0.00 65 1019.6
20260506170059 63 35 3.0 10.0 0.00 0.00 0.00 67 1019.7
20260506170017 63 35 3.0 10.0 0.00 0.00 0.00 67 1019.7
20260506165533 63 35 3.0 10.0 0.00 0.00 0.00 66 1019.7
20260506165105 63 34 4.0 10.0 0.00 0.00 0.00 67 1019.8
20260506165022 63 34 4.0 10.0 0.00 0.00 0.00 67 1019.8
20260506164528 62 35 3.0 7.0 0.00 0.00 0.00 66 1019.7
20260506164044 62 36 3.0 10.0 0.00 0.00 0.00 68 1019.8
20260506163519 63 37 5.0 9.0 0.00 0.00 0.00 68 1019.8
20260506163041 62 38 1.0 7.0 0.00 0.00 0.00 68 1019.8
20260506162615 61 36 3.0 7.0 0.00 0.00 0.00 70 1019.8
20260506162047 61 35 2.0 6.0 0.00 0.00 0.00 69 1019.7
20260506161607 61 37 4.0 7.0 0.00 0.00 0.00 69 1019.7
20260506161524 61 37 4.0 7.0 0.00 0.00 0.00 69 1019.7
20260506161100 61 36 3.0 8.0 0.00 0.00 0.00 69 1019.7
20260506161017 61 36 3.0 8.0 0.00 0.00 0.00 69 1019.7
20260506160612 61 35 4.0 8.0 0.00 0.00 0.00 72 1019.7
20260506160530 61 35 4.0 8.0 0.00 0.00 0.00 72 1019.7
20260506160053 60 38 2.0 3.0 0.00 0.00 0.00 72 1019.7
20260506155547 60 36 0.0 4.0 0.00 0.00 0.00 73 1019.6
20260506155021 60 34 2.0 4.0 0.00 0.00 0.00 74 1019.6
20260506154605 59 36 2.0 4.0 0.00 0.00 0.00 74 1019.6
20260506154523 59 36 2.0 4.0 0.00 0.00 0.00 74 1019.6
20260506154019 60 36 2.0 3.0 0.00 0.00 0.00 74 1019.8
20260506153537 60 35 0.0 3.0 0.00 0.00 0.00 74 1019.7
20260506153018 59 36 0.0 2.0 0.00 0.00 0.00 75 1019.7
20260506152613 59 35 1.0 4.0 0.00 0.00 0.00 75 1019.7
20260506152046 59 34 1.0 4.0 0.00 0.00 0.00 76 1019.6
20260506151547 59 34 1.0 4.0 0.00 0.00 0.00 76 1019.7
20260506151021 59 36 1.0 4.0 0.00 0.00 0.00 77 1019.7
20260506150616 58 38 1.0 4.0 0.00 0.00 0.00 77 1019.7
20260506150016 58 35 2.0 4.0 0.00 0.00 0.00 79 1019.8
20260506145612 57 35 1.0 6.0 0.00 0.00 0.00 79 1019.8
20260506145529 57 35 1.0 6.0 0.00 0.00 0.00 79 1019.8
20260506145046 57 34 2.0 8.0 0.00 0.00 0.00 80 1019.8
20260506144548 56 36 3.0 6.0 0.00 0.00 0.00 80 1019.8
20260506144043 56 38 3.0 8.0 0.00 0.00 0.00 81 1019.7
20260506143517 55 38 3.0 6.0 0.00 0.00 0.00 82 1019.6
20260506143020 55 35 3.0 6.0 0.00 0.00 0.00 82 1019.6
20260506142555 55 35 4.0 7.0 0.00 0.00 0.00 82 1019.5
20260506142031 54 36 4.0 8.0 0.00 0.00 0.00 83 1019.5
20260506141532 54 35 3.0 7.0 0.00 0.00 0.00 84 1019.4
20260506141048 54 34 2.0 6.0 0.00 0.00 0.00 84 1019.4
20260506140602 53 36 3.0 6.0 0.00 0.00 0.00 85 1019.3
20260506140520 53 36 3.0 6.0 0.00 0.00 0.00 85 1019.3
20260506140105 53 38 2.0 6.0 0.00 0.00 0.00 85 1019.4
20260506135558 53 36 2.0 6.0 0.00 0.01 0.00 86 1019.3
20260506135516 53 36 2.0 6.0 0.00 0.01 0.00 86 1019.3
20260506135031 53 35 4.0 6.0 0.00 0.01 0.00 86 1019.3
20260506134536 53 38 4.0 6.0 0.00 0.01 0.00 86 1019.3
20260506134050 52 35 4.0 8.0 0.00 0.01 0.00 86 1019.3
20260506133604 52 34 4.0 8.0 0.00 0.01 0.00 86 1019.2
20260506133522 52 34 4.0 8.0 0.00 0.01 0.00 86 1019.2
20260506133025 52 35 4.0 6.0 0.00 0.01 0.00 86 1019.2
20260506132521 52 32 4.0 7.0 0.00 0.01 0.00 86 1019.1
20260506132037 52 32 3.0 6.0 0.00 0.01 0.00 86 1019.1
20260506131601 52 36 3.0 6.0 0.00 0.01 0.00 86 1019.1
20260506131054 52 35 3.0 6.0 0.00 0.01 0.00 86 1019.0
20260506130608 52 34 3.0 6.0 0.00 0.01 0.00 86 1018.9
20260506130525 52 34 3.0 6.0 0.00 0.01 0.00 86 1018.9
20260506130047 52 36 4.0 6.0 0.00 0.01 0.00 86 1018.9
20260506125602 52 38 4.0 8.0 0.00 0.05 0.00 86 1018.9
20260506125519 52 38 4.0 8.0 0.00 0.05 0.00 86 1018.9
20260506125036 52 37 5.0 8.0 0.00 0.05 0.00 86 1018.8
20260506124557 52 34 5.0 8.0 0.00 0.05 0.00 86 1018.9
20260506124107 52 36 4.0 8.0 0.00 0.05 0.00 86 1018.8
20260506123546 53 38 4.0 8.0 0.00 0.05 0.00 86 1018.7
20260506123106 53 36 4.0 8.0 0.00 0.05 0.00 86 1018.7
20260506123024 53 36 4.0 8.0 0.00 0.05 0.00 86 1018.7
20260506122539 53 35 3.0 5.0 0.00 0.05 0.00 86 1018.7
20260506122113 53 38 3.0 5.0 0.00 0.05 0.00 85 1018.7
20260506121532 53 35 3.0 5.0 0.00 0.05 0.00 85 1018.6
20260506121108 53 35 2.0 5.0 0.00 0.05 0.00 85 1018.7
20260506120541 53 37 3.0 5.0 0.00 0.05 0.00 85 1018.7
20260506120022 54 37 2.0 4.0 0.00 0.05 0.00 85 1018.7
20260506115538 54 37 2.0 3.0 0.00 0.08 0.00 86 1018.7
20260506115111 53 36 2.0 3.0 0.00 0.08 0.00 86 1018.7
20260506114551 53 36 0.0 0.0 0.00 0.08 0.00 86 1018.6
20260506114025 53 34 0.0 2.0 0.00 0.08 0.00 86 1018.6
20260506113541 53 37 0.0 3.0 0.00 0.08 0.00 85 1018.6
20260506113105 53 38 1.0 4.0 0.00 0.08 0.00 85 1018.6
20260506112518 54 36 2.0 4.0 0.00 0.08 0.00 85 1018.6
20260506112014 54 38 1.0 3.0 0.00 0.08 0.00 84 1018.6
20260506111517 54 36 2.0 4.0 0.00 0.08 0.00 84 1018.6
20260506111112 54 38 2.0 4.0 0.00 0.08 0.00 84 1018.6
20260506110545 54 35 2.0 3.0 0.00 0.08 0.00 84 1018.6
20260506110109 54 34 2.0 3.0 0.00 0.08 0.00 84 1018.6
20260506110026 54 34 2.0 3.0 0.00 0.08 0.00 84 1018.6
20260506105542 54 36 2.0 3.0 0.00 0.12 0.00 84 1018.5
20260506105016 54 37 1.0 3.0 0.00 0.12 0.00 85 1018.6
20260506104540 54 35 1.0 2.0 0.00 0.12 0.00 84 1018.6
20260506104014 54 32 1.0 2.0 0.00 0.12 0.00 85 1018.5
20260506103530 53 35 0.0 2.0 0.00 0.12 0.00 85 1018.5
20260506103033 54 34 0.0 2.0 0.00 0.12 0.00 84 1018.5
20260506102609 53 36 0.0 1.0 0.00 0.12 0.00 86 1018.5
20260506102526 53 36 0.0 1.0 0.00 0.12 0.00 86 1018.5
20260506102043 53 35 0.0 1.0 0.00 0.12 0.00 85 1018.5
20260506101607 53 38 0.0 1.0 0.00 0.12 0.00 85 1018.5
20260506101524 53 38 0.0 1.0 0.00 0.12 0.00 85 1018.5
20260506101100 54 38 0.0 2.0 0.00 0.12 0.00 84 1018.5
20260506101017 54 38 0.0 2.0 0.00 0.12 0.00 84 1018.5
20260506100552 54 38 1.0 2.0 0.00 0.12 0.00 84 1018.4
20260506100031 54 36 1.0 2.0 0.00 0.12 0.00 85 1018.4
20260506095526 53 38 0.0 2.0 0.00 0.14 0.00 85 1018.5
20260506095043 53 36 0.0 2.0 0.00 0.14 0.00 84 1018.5
20260506094544 53 32 0.0 2.0 0.00 0.14 0.00 84 1018.4
20260506094058 54 35 1.0 2.0 0.00 0.14 0.00 83 1018.4
20260506094016 54 35 1.0 2.0 0.00 0.14 0.00 83 1018.4
20260506093553 54 35 0.0 2.0 0.00 0.14 0.00 84 1018.4
20260506093033 54 38 0.0 2.0 0.00 0.14 0.00 83 1018.4
20260506092547 54 35 0.0 2.0 0.00 0.14 0.00 83 1018.4
20260506092021 55 36 0.0 2.0 0.00 0.14 0.00 83 1018.4
20260506091544 54 38 1.0 2.0 0.00 0.14 0.00 84 1018.5
20260506091100 54 36 0.0 2.0 0.00 0.14 0.00 83 1018.5
20260506091018 54 36 0.0 2.0 0.00 0.14 0.00 83 1018.5
20260506090614 54 36 1.0 2.0 0.00 0.14 0.00 83 1018.5
20260506090531 54 36 1.0 2.0 0.00 0.14 0.00 83 1018.5
20260506090054 54 37 0.0 0.0 0.00 0.14 0.00 84 1018.5
20260506085608 54 36 0.0 0.0 0.00 0.14 0.00 85 1018.5
20260506085021 54 34 0.0 0.0 0.00 0.14 0.00 84 1018.7
20260506084606 54 35 0.0 0.0 0.00 0.14 0.00 84 1018.7
20260506084523 54 35 0.0 0.0 0.00 0.14 0.00 84 1018.7
20260506084019 54 38 0.0 0.0 0.00 0.14 0.00 84 1018.8
20260506083536 54 38 0.0 0.0 0.00 0.14 0.00 84 1018.8
20260506083039 54 36 0.0 0.0 0.00 0.14 0.00 84 1018.9
20260506082536 54 38 0.0 0.0 0.00 0.14 0.00 83 1018.8
20260506082031 54 32 0.0 0.0 0.00 0.14 0.00 83 1018.8
20260506081553 55 34 0.0 0.0 0.00 0.14 0.00 83 1018.9
20260506081107 55 37 0.0 0.0 0.00 0.14 0.00 82 1018.9
20260506081025 55 37 0.0 0.0 0.00 0.14 0.00 82 1018.9
20260506080540 55 35 0.0 0.0 0.00 0.14 0.00 82 1019.0
20260506073517 56 35 1.0 2.0 0.00 0.14 0.00 81 1019.2
20260506073020 56 32 1.0 2.0 0.00 0.14 0.00 81 1019.2
20260506072515 56 32 1.0 3.0 0.00 0.14 0.00 80 1019.2
20260506072031 56 35 1.0 3.0 0.00 0.14 0.00 80 1019.2
20260506071534 56 38 1.0 2.0 0.00 0.14 0.00 80 1019.3
20260506071048 56 36 1.0 3.0 0.00 0.14 0.00 80 1019.3
20260506070523 56 35 0.0 3.0 0.00 0.14 0.00 80 1019.2
20260506070107 56 36 0.0 2.0 0.00 0.14 0.00 80 1019.1
20260506062022 56 36 0.0 2.0 0.00 0.14 0.14 81 1018.8
20260506061607 56 36 1.0 3.0 0.00 0.14 0.14 80 1018.9
20260506061020 57 36 2.0 3.0 0.00 0.14 0.14 80 1018.9
20260506060536 56 36 0.0 2.0 0.00 0.14 0.14 80 1018.9
20260506051016 58 36 1.0 2.0 0.00 0.14 0.14 77 1018.7
20260506050547 58 34 1.0 3.0 0.00 0.14 0.14 76 1018.6
20260506045037 59 36 2.0 5.0 0.00 0.16 0.14 76 1018.5
20260506044601 59 32 2.0 5.0 0.00 0.16 0.14 76 1018.4
20260506044518 59 32 2.0 5.0 0.00 0.16 0.14 76 1018.4
20260506044033 59 36 1.0 5.0 0.00 0.16 0.14 76 1018.3
20260506043547 59 37 3.0 5.0 0.00 0.16 0.14 76 1018.2
20260506043048 59 36 4.0 5.0 0.00 0.16 0.14 76 1018.2
20260506042542 59 39 3.0 5.0 0.00 0.16 0.14 76 1018.2
20260506042018 59 35 3.0 5.0 0.00 0.16 0.14 76 1018.2
20260506041540 59 34 3.0 4.0 0.00 0.16 0.14 76 1018.1
20260506041035 59 34 2.0 6.0 0.00 0.16 0.14 76 1018.0
20260506040609 59 36 4.0 6.0 0.00 0.16 0.14 76 1018.0
20260506040028 59 34 3.0 5.0 0.00 0.16 0.14 76 1017.9
20260506035543 59 36 4.0 5.0 0.00 0.16 0.14 76 1017.9
20260506035017 59 36 3.0 5.0 0.00 0.16 0.14 76 1017.7
20260506034601 59 35 3.0 5.0 0.00 0.16 0.14 75 1017.6
20260506034015 59 36 4.0 5.0 0.00 0.16 0.14 75 1017.5
20260506033612 59 32 2.0 4.0 0.00 0.16 0.14 75 1017.5
20260506033530 59 32 2.0 4.0 0.00 0.16 0.14 75 1017.5
20260506033053 59 35 2.0 5.0 0.00 0.16 0.14 74 1017.4
20260506032547 59 35 3.0 6.0 0.00 0.16 0.14 74 1017.3
20260506032021 59 34 2.0 8.0 0.00 0.16 0.14 74 1017.3
20260506031605 59 36 5.0 8.0 0.00 0.16 0.14 74 1017.3
20260506031523 59 36 5.0 8.0 0.00 0.16 0.14 74 1017.3
20260506031058 59 35 3.0 8.0 0.00 0.16 0.14 73 1017.2
20260506031016 59 35 3.0 8.0 0.00 0.16 0.14 73 1017.2
20260506030531 59 37 4.0 7.0 0.00 0.16 0.14 72 1017.3
20260506030056 59 38 4.0 6.0 0.00 0.16 0.14 72 1017.2
20260506030013 59 38 4.0 6.0 0.00 0.16 0.14 72 1017.2
20260506025550 59 35 3.0 9.0 0.00 0.16 0.14 72 1017.1
20260506025026 59 35 4.0 9.0 0.00 0.16 0.14 71 1017.0
20260506024548 59 38 4.0 11.0 0.00 0.16 0.14 71 1016.9
20260506024023 59 36 8.0 11.0 0.00 0.16 0.14 69 1016.9
20260506023519 60 35 5.0 9.0 0.00 0.16 0.14 69 1016.8
20260506023044 59 35 4.0 9.0 0.00 0.16 0.14 69 1016.8
20260506022519 59 37 5.0 10.0 0.00 0.16 0.14 69 1016.8
20260506022034 59 36 6.0 10.0 0.00 0.16 0.14 69 1016.7
20260506021515 59 36 6.0 12.0 0.00 0.16 0.14 68 1016.6
20260506021014 60 34 8.0 13.0 0.00 0.16 0.14 67 1016.6
20260506020529 60 36 8.0 12.0 0.00 0.16 0.14 67 1016.5
20260506020029 61 35 6.0 11.0 0.00 0.16 0.14 65 1016.5
20260506015525 60 36 6.0 11.0 0.00 0.16 0.14 65 1016.5
20260506015041 60 36 7.0 11.0 0.00 0.16 0.14 65 1016.4
20260506014545 60 37 7.0 12.0 0.00 0.16 0.14 66 1016.4
20260506014039 60 36 8.0 12.0 0.00 0.16 0.14 65 1016.4
20260506013514 61 36 9.0 12.0 0.00 0.16 0.14 66 1016.4
20260506013017 61 35 7.0 13.0 0.00 0.16 0.14 63 1016.3
20260506012552 61 36 6.0 13.0 0.00 0.16 0.14 63 1016.2
20260506012026 61 34 7.0 13.0 0.00 0.16 0.14 64 1016.1
20260506011527 61 38 9.0 14.0 0.00 0.16 0.14 65 1016.2
20260506011022 61 36 10.0 16.0 0.00 0.16 0.14 63 1016.2
20260506010540 61 34 10.0 16.0 0.00 0.16 0.14 63 1016.1
20260506010113 61 36 10.0 15.0 0.00 0.16 0.14 62 1016.0
20260506005548 62 35 9.0 14.0 0.00 0.16 0.14 61 1016.1
20260506005043 62 37 4.0 16.0 0.00 0.16 0.14 60 1016.0
20260506004545 61 36 12.0 16.0 0.00 0.16 0.14 58 1016.0
20260506004100 61 34 10.0 16.0 0.00 0.16 0.14 62 1016.0
20260506003615 62 35 6.0 17.0 0.00 0.16 0.14 61 1015.9
20260506003532 62 35 6.0 17.0 0.00 0.16 0.14 61 1015.9
20260506003015 62 35 9.0 17.0 0.00 0.16 0.14 59 1016.0
20260506002530 62 36 8.0 17.0 0.00 0.16 0.14 62 1016.0
20260506002107 62 37 10.0 18.0 0.00 0.16 0.14 61 1016.0
20260506002024 62 37 10.0 18.0 0.00 0.16 0.14 61 1016.0
20260506001524 63 35 12.0 18.0 0.00 0.16 0.14 60 1016.0
20260506001059 62 37 10.0 14.0 0.00 0.16 0.14 61 1016.0
20260506000612 63 36 9.0 13.0 0.00 0.16 0.14 60 1016.0
20260506000530 63 36 9.0 13.0 0.00 0.16 0.14 60 1016.0
20260506000032 62 36 9.0 21.0 0.00 0.16 0.14 60 1016.0
20260505235528 62 36 13.0 21.0 0.00 0.16 0.14 59 1016.1
20260505235045 61 35 11.0 17.0 0.00 0.16 0.14 63 1016.0
20260505234545 63 35 8.0 19.0 0.00 0.16 0.14 63 1016.0
20260505234059 62 37 13.0 19.0 0.00 0.16 0.14 62 1016.0
20260505234017 62 37 13.0 19.0 0.00 0.16 0.14 62 1016.0
20260505233612 62 34 9.0 18.0 0.00 0.16 0.14 64 1016.0
20260505233530 62 34 9.0 18.0 0.00 0.16 0.14 64 1016.0
20260505233052 62 36 11.0 18.0 0.00 0.16 0.14 63 1015.9
20260505232606 62 36 14.0 18.0 0.00 0.16 0.14 62 1015.9
20260505232524 62 36 14.0 18.0 0.00 0.16 0.14 62 1015.9
20260505232055 63 38 11.0 18.0 0.00 0.16 0.14 59 1016.0
20260505231515 62 32 11.0 18.0 0.00 0.16 0.14 60 1015.9
20260505231014 63 34 11.0 18.0 0.00 0.16 0.14 57 1016.0
20260505230606 63 34 12.0 18.0 0.00 0.16 0.14 58 1016.0
20260505230523 63 34 12.0 18.0 0.00 0.16 0.14 58 1016.0
20260505230028 63 36 9.0 20.0 0.00 0.16 0.14 57 1016.0
20260505225524 63 35 15.0 20.0 0.00 0.16 0.14 57 1016.1
20260505225040 63 32 11.0 20.0 0.00 0.16 0.14 58 1016.0
20260505224523 63 37 12.0 18.0 0.00 0.16 0.14 57 1016.0
20260505224038 64 36 12.0 18.0 0.00 0.16 0.14 59 1016.0
20260505223613 63 35 13.0 18.0 0.00 0.16 0.14 59 1016.0
20260505223530 63 35 13.0 18.0 0.00 0.16 0.14 59 1016.0
20260505223030 64 36 9.0 20.0 0.00 0.16 0.14 55 1016.2
20260505222547 64 32 10.0 18.0 0.00 0.16 0.14 56 1016.1
20260505222101 64 34 12.0 18.0 0.00 0.16 0.14 55 1016.1
20260505221541 64 32 10.0 18.0 0.00 0.16 0.14 56 1016.3
20260505221055 64 34 12.0 16.0 0.00 0.16 0.14 54 1016.2
20260505220529 65 34 8.0 18.0 0.00 0.16 0.14 54 1016.2
20260505220031 64 35 11.0 18.0 0.00 0.16 0.14 54 1016.2
20260505215526 64 35 12.0 18.0 0.00 0.16 0.14 55 1016.4
20260505215023 64 36 12.0 18.0 0.00 0.16 0.14 55 1016.4
20260505214607 64 35 11.0 18.0 0.00 0.16 0.14 56 1016.4
20260505214020 64 35 11.0 18.0 0.00 0.16 0.14 56 1016.5
20260505213555 64 36 10.0 16.0 0.00 0.16 0.14 52 1016.6
20260505213016 64 36 10.0 17.0 0.00 0.16 0.14 56 1016.6
20260505212612 64 35 10.0 17.0 0.00 0.16 0.14 52 1016.6
20260505212530 64 35 10.0 17.0 0.00 0.16 0.14 52 1016.6